Santiago, Chile

9:46 PM -03 on August 15, 2018 (GMT -0300)
Arturo Merino Benitez International

Weather History for SCEL - February, 2018

Change the Weather History Date:

Friday, February 2, 2018

  Actual Average Record
Temperature  
Mean Temperature 70 °F -  
Max Temperature 86 °F 82 °F 92 °F (2013)
Min Temperature 55 °F 51 °F 50 °F (1997)
Cooling Degree Days 6    
Growing Degree Days 20 (Base 50)    
Moisture  
Dew Point 54 °F    
Average Humidity 59    
Maximum Humidity 94    
Minimum Humidity 23    
Precipitation  
Precipitation 0.00 in - - ()
Sea Level Pressure  
Sea Level Pressure 29.86 in    
Wind  
Wind Speed 9 mph ()    
Max Wind Speed 16 mph    
Max Gust Speed -    
Visibility 4.9 miles    
Events Fog    
Averages and records for this station are not official NWS values.
T = Trace of Precipitation, MM = Missing Value Source: Averaged Metar Reports

Daily Weather History Graph

Daily Weather History Graph

Search for Another Location

Airport or City:

Astronomy

Feb. 02, 2018 Rise Set
Actual Time 7:06 AM -03 8:46 PM -03
Civil Twilight 6:39 AM -03 9:13 PM -03
Nautical Twilight 6:07 AM -03 9:45 PM -03
Astronomical Twilight 5:33 AM -03 10:19 PM -03
Moon 10:31 PM -03 (2/2) 9:16 AM -03 (2/2)
Length of Visible Light 14h 33m
Length of Day
13h 39m
Waning Gibbous, 94% of the Moon is Illuminated
Feb 2
Waning Gibbous
Feb 7
Last Quarter
Feb 15
New
Feb 23
First Quarter
Mar 1
Full

Hourly Weather History & Observations

Time (-03) Temp. Heat Index Dew Point Humidity Pressure Visibility Wind Dir Wind Speed Gust Speed Precip Events Conditions
12:00 AM 68.0 °F - 53.6 °F 60% 29.83 in - SSE 11.5 mph - N/A   Clear
1:00 AM 64.4 °F - 53.6 °F 68% 29.83 in - South 8.1 mph - N/A   Clear
2:00 AM 64.4 °F - 53.6 °F 68% 29.86 in - South 8.1 mph - N/A   Clear
3:00 AM 62 °F - 53 °F 65% 29.84 in 6 mi SSE 6.9 mph - -   Partly Cloudy
3:00 AM 62.6 °F - 53.6 °F 72% 29.86 in - SSE 6.9 mph - N/A   Clear
4:00 AM 60.8 °F - 53.6 °F 77% 29.86 in - SSE 5.8 mph - N/A   Clear
5:00 AM 59.0 °F - 53.6 °F 82% 29.86 in - South 5.8 mph - N/A   Clear
6:00 AM 59.0 °F - 53.6 °F 82% 29.89 in - SSE 8.1 mph - N/A   Clear
7:00 AM 57.2 °F - 53.6 °F 88% 29.89 in 5.0 mi SSE 8.1 mph - N/A Fog Fog
8:00 AM 55.4 °F - 53.6 °F 94% 29.89 in 3.1 mi South 8.1 mph - N/A   Partly Cloudy
9:00 AM 60 °F - 54 °F 74% 29.91 in 4 mi SSE 5.8 mph - -   Haze
9:00 AM 59.0 °F - 53.6 °F 82% 29.92 in 4.3 mi SSE 5.8 mph - N/A   Partly Cloudy
10:00 AM 64.4 °F - 53.6 °F 68% 29.92 in 5.0 mi SSE 5.8 mph - N/A   Unknown
11:00 AM 69.8 °F - 53.6 °F 56% 29.92 in - South 6.9 mph - N/A   Clear
12:00 PM 75.2 °F - 53.6 °F 47% 29.92 in - South 9.2 mph - N/A   Clear
1:00 PM 77.0 °F - 55.4 °F 47% 29.89 in - SSE 10.4 mph - N/A   Clear
2:00 PM 80.6 °F 80.5 °F 55.4 °F 42% 29.86 in - South 15.0 mph - N/A   Clear
3:00 PM 85 °F - 53 °F 23% 29.78 in 6 mi South 15.0 mph - -   Partly Cloudy
3:00 PM 84.2 °F 82.8 °F 53.6 °F 35% 29.86 in - South 15.0 mph - N/A   Clear
4:00 PM 84.2 °F 82.8 °F 53.6 °F 35% 29.83 in - South 15.0 mph - N/A   Clear
5:00 PM 86.0 °F 84.2 °F 53.6 °F 33% 29.83 in - SSW 15.0 mph - N/A   Clear
6:00 PM 84.2 °F 82.8 °F 53.6 °F 35% 29.80 in - SSW 15.0 mph - N/A   Clear
7:00 PM 80.6 °F 80.5 °F 55.4 °F 42% 29.80 in - SSW 16.1 mph - N/A   Clear
8:00 PM 78.8 °F - 55.4 °F 44% 29.80 in - SSW 11.5 mph - N/A   Clear
9:00 PM 74 °F - 56 °F 44% 29.77 in 6 mi South 11.5 mph - -   Partly Cloudy
9:00 PM 75.2 °F - 57.2 °F 53% 29.83 in - South 11.5 mph - N/A   Clear
10:00 PM 69.8 °F - 55.4 °F 60% 29.86 in - SSE 9.2 mph - N/A   Clear
11:00 PM 68.0 °F - 55.4 °F 64% 29.86 in - SSE 11.5 mph - N/A   Clear